Regional Weather Roundup
Issued by NWS

Home | Current Version | Previous Version | Text Only | Print | Product List | Glossary Off
Versions: 1 2 3 4 5 6 7 8 9 10 11 12 13 14 15 16 17 18 19 20 21 22 23 24 25 26 27 28 29 30 31 32 33 34 35 36 37 38 39 40 41 42 43 44 45 46 47 48 49 50

000
ASUS43 KBIS 290902
RWRND

NORTH DAKOTA REGIONAL WEATHER ROUNDUP
NATIONAL WEATHER SERVICE BISMARCK ND
400 AM CDT WED MAR 29 2017

NOTE: "FAIR" INDICATES FEW OR NO CLOUDS BELOW 12,000 FEET WITH NO
SIGNIFICANT WEATHER AND/OR OBSTRUCTIONS TO VISIBILITY.


NDZ001>003-009>011-017-291000-
NORTHWEST NORTH DAKOTA

CITY           SKY/WX    TMP DP  RH WIND       PRES   REMARKS
WILLISTON      FOG       33  33 100 CALM      30.07F VSB<1/4
MINOT          CLOUDY    43  39  86 SW5       30.07F
MINOT AFB      CLOUDY    37  37  99 S8        30.06S
$$

NDZ018>021-031>035-040>046-291000-
SOUTHWEST NORTH DAKOTA

CITY           SKY/WX    TMP DP  RH WIND       PRES   REMARKS
BISMARCK       MOCLDY    41  37  86 SE5       30.15R
DICKINSON      MOCLDY    36  35  96 S8        30.08R
GARRISON         N/A     38  36  92 S5        30.09S
HETTINGER ARPT MOCLDY    38  37  97 SE5       30.12S FOG
$$

NDZ004>008-012>016-024-026-027-054-291000-
NORTHEAST NORTH DAKOTA

CITY           SKY/WX    TMP DP  RH WIND       PRES   REMARKS
GRAND FORKS    CLOUDY    33  32  96 CALM      30.18S
GRND FRKS AFB  CLOUDY    30  30 100 CALM      30.18S
DEVILS LAKE    FOG       33  32  96 SE7       30.16S VSB 1/2
$$

NDZ022-023-025-028>030-036>039-047>053-291000-
SOUTHEAST NORTH DAKOTA

CITY           SKY/WX    TMP DP  RH WIND       PRES   REMARKS
FARGO          CLOUDY    37  32  82 CALM      30.18R
JAMESTOWN      FAIR      36  36 100 CALM      30.16S FOG
$$





USA.gov is the U.S. government's official web portal to all federal, state and local government web resources and services.